User: anonymous   Login
Location: Unspecified
(0.0000°N, 0.0000°E)
Time: 15:19:50
(UTC+00:00)
Language:

BIROS - Orbit

View from above orbital plane
View from above orbital plane
View from above satellite
View from above satellite

Ground track
Ground track

The orbit data is extracted from the following two-line orbital elements,

1 41604U 16040F   19078.45588427 +.00000490 +00000-0 +24715-4 0  9990
2 41604 097.3758 141.5968 0012071 353.9520 006.1568 15.21631564152028
Epoch (UTC): 19 March 2019 10:56:28
Eccentricity: 0.0012071
inclination: 97.3758°
perigee height: 492 km
apogee height: 509 km
right ascension of ascending node: 141.5968°
argument of perigee: 353.9520°
revolutions per day: 15.21631564
mean anomaly at epoch: 6.1568°
orbit number at epoch: 15202

The dashed part of the orbit path shows where the satellite is in the earth's shadow,  

DLR